Terminal Aerodrome Forecast
Issued by NWS

Home | Current Version | Previous Version | Text Only | Print | Product List | Glossary On
Versions: 1 2 3 4 5 6 7 8 9 10 11 12 13
000
FTAK31 PAJN 210500
TAFAKT
TAF
PAKT 210529Z 2106/2206 14005KT P6SM FEW040 SCT100
     FM210800 VRB04KT P6SM VCFG SCT030
     FM211300 32008KT P6SM FEW020
     FM212000 31012KT P6SM SKC
      AMD LTD TO CLD VIS AND WIND 2106/2115=

USA.gov is the U.S. government's official web portal to all federal, state and local government web resources and services.